Weather History for Clinton, MO

Change the Weather History Date:

Monday, January 21, 2013

  Actual Average (KSZL) Record (KSZL)
Temperature  
Mean Temperature 22 °F -  
Max Temperature 28 °F 37 °F 62 °F (1997)
Min Temperature 17 °F 20 °F 1 °F (2011)
Degree Days  
Heating Degree Days 42    
Moisture  
Dew Point 10 °F    
Average Humidity 59    
Maximum Humidity 80    
Minimum Humidity 43    
Precipitation  
Precipitation 0.00 in - - ()
Sea Level Pressure  
Sea Level Pressure 30.39 in    
Wind  
Wind Speed 7 mph (NNW)    
Max Wind Speed 13 mph    
Max Gust Speed 16 mph    
Visibility 10 miles    
Events      
Averages and records for this station are not official NWS values.
T = Trace of Precipitation, MM = Missing Value Source: NWS Daily Summary

Daily Weather History Graph

Daily Weather History Graph

Search for Another Location

Airport:

Trip Planner

Search our weather history database for the weather conditions in past years. The results will help you decide how hot, cold, wet, or windy it might be!

Date:

Astronomy

Jan. 21, 2013 Rise Set
Actual Time 7:27 AM CST 5:25 PM CST
Civil Twilight 6:59 AM CST 5:53 PM CST
Nautical Twilight 6:26 AM CST 6:25 PM CST
Astronomical Twilight 5:55 AM CST 6:57 PM CST
Moon 1:05 PM CST (1/21) 2:56 AM CST (1/21)
Length of Visible Light 10h 54m
Length of Day
9h 57m
Waxing Gibbous, 75% of the Moon is Illuminated
Jan 21
Waxing Gibbous
Jan 26
Full
Feb 3
Last Quarter
Feb 10
New
Feb 17
First Quarter

Hourly Weather History & Observations

Time (CST) Temp. Windchill Dew Point Humidity Pressure Visibility Wind Dir Wind Speed Gust Speed Precip Events Conditions
12:15 AM 26.6 °F 16.8 °F 14.0 °F 59% 30.38 in 10.0 mi North 10.4 mph - N/A   Clear
12:35 AM 26.6 °F 16.8 °F 14.0 °F 59% 30.37 in 10.0 mi North 10.4 mph - N/A   Clear
12:55 AM 24.8 °F 15.3 °F 14.0 °F 64% 30.36 in 10.0 mi North 9.2 mph - N/A   Clear
1:15 AM 23.0 °F 14.7 °F 14.0 °F 68% 30.37 in 10.0 mi North 6.9 mph - N/A   Clear
1:35 AM 23.0 °F 13.1 °F 14.0 °F 68% 30.38 in 10.0 mi North 9.2 mph - N/A   Clear
1:55 AM 23.0 °F 11.7 °F 14.0 °F 68% 30.39 in 10.0 mi North 11.5 mph - N/A   Clear
2:15 AM 23.0 °F 13.1 °F 14.0 °F 68% 30.40 in 10.0 mi North 9.2 mph - N/A   Clear
2:35 AM 21.2 °F 10.9 °F 12.2 °F 68% 30.40 in 10.0 mi North 9.2 mph - N/A   Clear
2:55 AM 21.2 °F 10.1 °F 14.0 °F 74% 30.40 in 10.0 mi North 10.4 mph - N/A   Clear
3:15 AM 21.2 °F 10.9 °F 14.0 °F 74% 30.41 in 10.0 mi North 9.2 mph - N/A   Clear
3:35 AM 19.4 °F 11.5 °F 14.0 °F 80% 30.40 in 10.0 mi NNW 5.8 mph - N/A   Clear
3:55 AM 19.4 °F 11.5 °F 12.2 °F 74% 30.41 in 10.0 mi NNW 5.8 mph - N/A   Clear
4:15 AM 19.4 °F 11.5 °F 12.2 °F 74% 30.41 in 10.0 mi NNW 5.8 mph - N/A   Clear
4:35 AM 19.4 °F 12.8 °F 14.0 °F 80% 30.40 in 10.0 mi North 4.6 mph - N/A   Clear
4:55 AM 17.6 °F - 12.2 °F 79% 30.40 in 10.0 mi Calm Calm - N/A   Clear
5:15 AM 19.4 °F - 12.2 °F 74% 30.39 in 10.0 mi Calm Calm - N/A   Clear
5:35 AM 17.6 °F - 12.2 °F 79% 30.40 in 10.0 mi Calm Calm - N/A   Clear
5:55 AM 17.6 °F - 12.2 °F 79% 30.40 in 10.0 mi Calm Calm - N/A   Clear
6:15 AM 17.6 °F - 12.2 °F 79% 30.40 in 10.0 mi Calm Calm - N/A   Clear
6:35 AM 17.6 °F - 12.2 °F 79% 30.39 in 10.0 mi Calm Calm - N/A   Clear
6:55 AM 17.6 °F - 12.2 °F 79% 30.40 in 10.0 mi Calm Calm - N/A   Clear
7:15 AM 17.6 °F - 12.2 °F 79% 30.40 in 10.0 mi Calm Calm - N/A   Clear
7:35 AM 17.6 °F - 12.2 °F 79% 30.41 in 10.0 mi Calm Calm - N/A   Clear
7:55 AM 17.6 °F - 12.2 °F 79% 30.42 in 9.0 mi Calm Calm - N/A   Clear
8:15 AM 19.4 °F - 14.0 °F 80% 30.42 in 10.0 mi Calm Calm - N/A   Clear
8:35 AM 21.2 °F 14.9 °F 14.0 °F 74% 30.42 in 10.0 mi NW 4.6 mph - N/A   Clear
8:55 AM 21.2 °F 11.7 °F 12.2 °F 68% 30.42 in 10.0 mi NNW 8.1 mph - N/A   Clear
9:15 AM 21.2 °F 10.9 °F 12.2 °F 68% 30.43 in 10.0 mi NNW 9.2 mph - N/A   Clear
9:35 AM 23.0 °F 13.1 °F 12.2 °F 63% 30.43 in 10.0 mi NNW 9.2 mph - N/A   Clear
9:55 AM 23.0 °F 14.7 °F 12.2 °F 63% 30.43 in 10.0 mi NNW 6.9 mph - N/A   Partly Cloudy
10:15 AM 23.0 °F 12.4 °F 12.2 °F 63% 30.44 in 10.0 mi NW 10.4 mph - N/A   Mostly Cloudy
10:35 AM 24.8 °F 15.3 °F 14.0 °F 64% 30.44 in 9.0 mi NNW 9.2 mph - N/A   Overcast
10:55 AM 26.6 °F 17.5 °F 14.0 °F 59% 30.44 in 10.0 mi WNW 9.2 mph - N/A   Overcast
11:15 AM 26.6 °F 16.8 °F 12.2 °F 55% 30.43 in 10.0 mi NNW 10.4 mph 16.1 mph N/A   Overcast
11:35 AM 26.6 °F 16.8 °F 12.2 °F 55% 30.44 in 10.0 mi NW 10.4 mph - N/A   Overcast
11:55 AM 26.6 °F 15.7 °F 12.2 °F 55% 30.42 in 9.0 mi NNW 12.7 mph - N/A   Overcast
12:15 PM 26.6 °F 17.5 °F 12.2 °F 55% 30.41 in 10.0 mi NNW 9.2 mph - N/A   Overcast
12:35 PM 26.6 °F 16.2 °F 10.4 °F 51% 30.41 in 10.0 mi NNW 11.5 mph - N/A   Overcast
12:55 PM 28.4 °F 18.0 °F 8.6 °F 43% 30.39 in 10.0 mi NNW 12.7 mph 16.1 mph N/A   Overcast
1:15 PM 26.6 °F 16.8 °F 6.8 °F 43% 30.40 in 10.0 mi NW 10.4 mph - N/A   Overcast
1:35 PM 26.6 °F 18.2 °F 8.6 °F 47% 30.40 in 10.0 mi NNW 8.1 mph - N/A   Overcast
1:55 PM 26.6 °F 17.5 °F 8.6 °F 47% 30.39 in 10.0 mi NW 9.2 mph - N/A   Overcast
2:15 PM 26.6 °F 17.5 °F 8.6 °F 47% 30.39 in 9.0 mi NW 9.2 mph - N/A   Overcast
2:35 PM 26.6 °F 16.8 °F 8.6 °F 47% 30.39 in 9.0 mi NNW 10.4 mph - N/A   Overcast
2:55 PM 26.6 °F 18.2 °F 8.6 °F 47% 30.39 in 9.0 mi NNW 8.1 mph - N/A   Overcast
3:15 PM 26.6 °F 18.2 °F 8.6 °F 47% 30.38 in 10.0 mi NW 8.1 mph - N/A   Overcast
3:35 PM 28.4 °F 19.7 °F 10.4 °F 47% 30.39 in 9.0 mi NW 9.2 mph - N/A   Overcast
3:55 PM 26.6 °F 21.2 °F 10.4 °F 51% 30.38 in 10.0 mi NNW 4.6 mph - N/A   Overcast
4:15 PM 26.6 °F - 10.4 °F 51% 30.38 in 10.0 mi Calm Calm - N/A   Overcast
4:35 PM 26.6 °F 22.6 °F 10.4 °F 51% 30.38 in 9.0 mi NW 3.5 mph - N/A   Overcast
4:55 PM 26.6 °F 20.0 °F 10.4 °F 51% 30.37 in 9.0 mi NW 5.8 mph - N/A   Overcast
5:15 PM 26.6 °F 18.2 °F 10.4 °F 51% 30.37 in 10.0 mi North 8.1 mph - N/A   Overcast
5:35 PM 24.8 °F 16.9 °F 6.8 °F 46% 30.38 in 10.0 mi North 6.9 mph - N/A   Overcast
5:55 PM 24.8 °F 19.1 °F 6.8 °F 46% 30.38 in 10.0 mi NNW 4.6 mph - N/A   Overcast
6:15 PM 24.8 °F 16.9 °F 6.8 °F 46% 30.37 in 10.0 mi NNW 6.9 mph - N/A   Overcast
6:35 PM 24.8 °F 16.9 °F 6.8 °F 46% 30.37 in 10.0 mi NNW 6.9 mph - N/A   Overcast
6:55 PM 23.0 °F 13.9 °F 6.8 °F 50% 30.38 in 10.0 mi North 8.1 mph - N/A   Overcast
7:15 PM 23.0 °F 13.9 °F 5.0 °F 46% 30.38 in 10.0 mi North 8.1 mph - N/A   Overcast
7:35 PM 23.0 °F 14.7 °F 6.8 °F 50% 30.37 in 10.0 mi North 6.9 mph - N/A   Overcast
7:55 PM 23.0 °F 15.8 °F 5.0 °F 46% 30.37 in 10.0 mi NNW 5.8 mph - N/A   Overcast
8:15 PM 23.0 °F - 5.0 °F 46% 30.37 in 10.0 mi Calm Calm - N/A   Overcast
8:35 PM 23.0 °F - 5.0 °F 46% 30.37 in 10.0 mi Calm Calm - N/A   Mostly Cloudy
8:55 PM 23.0 °F - 5.0 °F 46% 30.38 in 10.0 mi Calm Calm - N/A   Mostly Cloudy
9:15 PM 23.0 °F 18.4 °F 5.0 °F 46% 30.38 in 10.0 mi NNE 3.5 mph - N/A   Overcast
9:35 PM 21.2 °F 12.6 °F 5.0 °F 50% 30.38 in 10.0 mi North 6.9 mph - N/A   Mostly Cloudy
9:55 PM 21.2 °F 14.9 °F 6.8 °F 54% 30.38 in 10.0 mi NNE 4.6 mph - N/A   Scattered Clouds
10:15 PM 21.2 °F 13.6 °F 5.0 °F 50% 30.39 in 10.0 mi NNE 5.8 mph - N/A   Scattered Clouds
10:35 PM 21.2 °F 14.9 °F 5.0 °F 50% 30.39 in 10.0 mi NNE 4.6 mph - N/A   Mostly Cloudy
10:55 PM 21.2 °F - 5.0 °F 50% 30.38 in 10.0 mi Calm Calm - N/A   Mostly Cloudy
11:15 PM 21.2 °F 16.4 °F 5.0 °F 50% 30.38 in 10.0 mi NNE 3.5 mph - N/A   Mostly Cloudy
11:35 PM 21.2 °F - 5.0 °F 50% 30.38 in 10.0 mi Calm Calm - N/A   Overcast
11:55 PM 21.2 °F 14.9 °F 5.0 °F 50% 30.38 in 10.0 mi ENE 4.6 mph - N/A   Overcast